/accessiblerelationsethelper.hxx/1.4/Sun Jun 12 14:43:25 2005//TSRC680_m108
/accessiblestatesethelper.hxx/1.11/Sun Jun 12 14:43:25 2005//TSRC680_m108
/atom.hxx/1.7/Sun Jun 12 14:43:25 2005//TSRC680_m108
/bootstrap.hxx/1.10/Sun Jun 12 14:43:25 2005//TSRC680_m108
/calendarwrapper.hxx/1.8/Sun Jun 12 14:43:25 2005//TSRC680_m108
/charclass.hxx/1.10/Sun Jun 12 14:43:25 2005//TSRC680_m108
/collatorwrapper.hxx/1.3/Sun Jun 12 14:43:25 2005//TSRC680_m108
/configitem.hxx/1.22/Sun Jun 12 14:43:25 2005//TSRC680_m108
/configmgr.hxx/1.17/Sun Jun 12 14:43:25 2005//TSRC680_m108
/confignode.hxx/1.5/Sun Jun 12 14:43:25 2005//TSRC680_m108
/configpathes.hxx/1.2/Sun Jun 12 14:43:25 2005//TSRC680_m108
/configvaluecontainer.hxx/1.2/Sun Jun 12 14:43:25 2005//TSRC680_m108
/datetime.hxx/1.4/Sun Jun 12 14:43:25 2005//TSRC680_m108
/db.mk/1.1.1.1/Mon Sep 18 17:03:52 2000//TSRC680_m108
/desktopterminationobserver.hxx/1.3/Sun Jun 12 14:43:25 2005//TSRC680_m108
/eventlisteneradapter.hxx/1.3/Sun Jun 12 14:43:25 2005//TSRC680_m108
/idhelper.hxx/1.2/Mon Oct 23 14:47:31 2000//TSRC680_m108
/intlwrapper.hxx/1.2/Sun Jun 12 14:43:25 2005//TSRC680_m108
/localedatawrapper.hxx/1.23/Sun Jun 12 14:43:25 2005//TSRC680_m108
/localfilehelper.hxx/1.6/Sun Jun 12 14:43:25 2005//TSRC680_m108
/nativenumberwrapper.hxx/1.3/Sun Jun 12 14:43:25 2005//TSRC680_m108
/numberformatcodewrapper.hxx/1.5/Sun Jun 12 14:43:25 2005//TSRC680_m108
/processfactory.hxx/1.3/Sun Jun 12 14:43:25 2005//TSRC680_m108
/progresshandlerwrap.hxx/1.3/Sun Jun 12 14:43:25 2005//TSRC680_m108
/propertysethelper.hxx/1.1/Sun Mar  4 21:47:01 2001//TSRC680_m108
/propertysetinfo.hxx/1.1/Sun Mar  4 21:47:01 2001//TSRC680_m108
/querydeep.hxx/1.1.1.1/Mon Sep 18 17:03:53 2000//TSRC680_m108
/readwritemutexguard.hxx/1.1/Thu Jul  5 14:53:41 2001//TSRC680_m108
/regpathhelper.hxx/1.1.1.1/Mon Sep 18 17:03:53 2000//TSRC680_m108
/servicehelper.hxx/1.2/Mon Oct  6 15:59:55 2003//TSRC680_m108
/stl_types.hxx/1.2/Thu Dec  7 13:23:51 2000//TSRC680_m108
/streamhelper.hxx/1.3/Sun Jun 12 14:43:25 2005//TSRC680_m108
/streamsection.hxx/1.1.1.1/Mon Sep 18 17:03:54 2000//TSRC680_m108
/streamwrap.hxx/1.7/Sun Jun 12 14:43:25 2005//TSRC680_m108
/tempfile.hxx/1.6/Sun Jun 12 14:43:25 2005//TSRC680_m108
/textsearch.hxx/1.6/Sun Jun 12 14:43:25 2005//TSRC680_m108
/transliterationwrapper.hxx/1.13/Sun Jun 12 14:43:25 2005//TSRC680_m108
/ucbhelper.hxx/1.6/Sun Jun 12 14:43:25 2005//TSRC680_m108
/ucblockbytes.hxx/1.24/Sun Jun 12 14:43:25 2005//TSRC680_m108
/ucbstreamhelper.hxx/1.7/Sun Jun 12 14:43:25 2005//TSRC680_m108
/unotools.mk/1.2/Tue Nov 20 17:05:57 2001//TSRC680_m108
/unotoolsdllapi.h/1.2/Wed Apr 13 12:29:26 2005//TSRC680_m108
/unotunnelhelper.hxx/1.1.1.1/Mon Sep 18 17:03:54 2000//TSRC680_m108
D
